utc_time,unix_time,temp,cond,salinity,tds,chla_rfu,chla_ugl,bga_rfu,bga_ugl,odo,sat,nitrate_um,nitrogen_mg,stage,area,discharge,total_discharge
2019-03-01 00:00:00+00:00,1551398402,17.013,14015.96,9.74,10.75,,,,,23.68,259.89,35.917,0.50309,1.077,1.7232,0.0633,0.1266
2019-03-01 00:20:00+00:00,1551399601,17.038,13893.58,9.65,10.65,,,,,24.42,267.97,34.325,0.48077,1.0775,1.724,-0.0125,-0.025
2019-03-01 00:40:00+00:00,1551400801,16.818,14122.73,9.87,10.88,,,,,23.73,259.63,35.235,0.49354,1.084,1.7344,0.0736,0.1472
2019-03-01 01:00:00+00:00,1551402001,16.705,13666.24,9.55,10.56,,,,,23.7,258.18,34.634,0.4851,1.084,1.7344,0.0441,0.0882
2019-03-01 01:20:00+00:00,1551403201,16.675,13726.5,9.61,10.61,,,,,23.45,255.43,33.004,0.46227,1.0885,1.7416,0.08045,0.1609
2019-03-01 01:40:00+00:00,1551404402,16.561,13606.63,9.54,10.54,,,,,23.62,256.51,33.46,0.46865,1.09,1.744,0.097,0.194
2019-03-01 02:00:00+00:00,1551405601,16.345,13575.58,9.57,10.57,,,,,23.1,249.81,32.53,0.45566,1.094,1.7504,0.0644,0.1288
2019-03-01 02:20:00+00:00,1551406801,16.151,13545.69,9.59,10.6,,,,,22.53,242.69,32.036,0.4487,1.0975,1.756,0.06955,0.1391
2019-03-01 02:40:00+00:00,1551408001,15.87,16161.51,11.7,12.72,,,,,21.36,231.72,31.748,0.44471,1.101,1.7616,0.0698,0.1396
2019-03-01 03:00:00+00:00,1551409201,15.732,16049.23,11.65,12.68,,,,,20.94,226.5,31.521,0.4415,1.102,1.7632,0.1181,0.2362
2019-03-01 03:20:00+00:00,1551410401,15.667,16298.62,11.87,12.89,,,,,20.83,225.3,31.387,0.43961,1.105,1.768,0.09835,0.1967
2019-03-01 03:40:00+00:00,1551411601,15.639,16144.25,11.75,12.78,,,,,20.48,221.22,31.53,0.44163,1.107,1.7712,0.1504,0.3008
2019-03-01 04:00:00+00:00,1551412801,15.519,16698.7,12.23,13.25,,,,,20.21,218.36,31.327,0.43879,1.11,1.776,0.1357,0.2714
2019-03-01 04:20:00+00:00,1551414001,15.398,16685.46,12.26,13.28,,,,,19.78,213.27,30.555,0.42796,1.1125,1.78,0.14105,0.2821
2019-03-01 04:40:00+00:00,1551415201,15.255,17301.19,12.8,13.82,,,,,19.24,207.48,29.514,0.41341,1.113,1.7808,0.1277,0.2554
2019-03-01 05:00:00+00:00,1551416401,14.995,17251.16,12.84,13.86,,,,,18.73,200.95,29.158,0.40841,1.116,1.7856,0.0674,0.1348
2019-03-01 05:20:00+00:00,1551417601,14.885,17109.61,12.76,13.78,,,,,18.37,196.57,28.743,0.40261,1.123,1.7968,0.10345,0.2069
2019-03-01 05:40:00+00:00,1551418801,14.797,17104.59,12.79,13.81,,,,,18.62,198.78,28.057,0.39301,1.123,1.7968,0.1204,0.2408
2019-03-01 06:00:00+00:00,1551420001,14.669,17269.46,12.96,13.98,,,,,17.79,189.74,28.029,0.3926,1.125,1.8,0.0187,0.0374
2019-03-01 06:20:00+00:00,1551421201,14.766,17284.22,12.94,13.96,,,,,16.16,172.69,28.592,0.40049,1.1275,1.804,0.08685,0.1737
2019-03-01 06:40:00+00:00,1551422401,14.708,15510.11,11.52,12.55,,,,,16.87,178.38,27.179,0.3807,1.132,1.8112,0.0718,0.1436
2019-03-01 07:00:00+00:00,1551423602,14.351,12981.75,9.59,10.59,,,,,17.17,178.08,28.061,0.39306,1.134,1.8144,0.0668,0.1336
2019-03-01 07:20:00+00:00,1551424802,14.467,12804.32,9.42,10.42,,,,,17.29,179.63,28.829,0.40377,1.1345,1.8152,0.1088,0.2176
2019-03-01 07:40:00+00:00,1551426001,14.209,11900.02,8.76,9.74,,,,,17.97,184.85,42.494,0.59523,1.136,1.8176,0.0549,0.1098
2019-03-01 08:00:00+00:00,1551427201,14.291,12009.85,8.83,9.81,,,,,17.96,185.15,35.452,0.49657,1.137,1.8192,0.0842,0.1684
2019-03-01 08:20:00+00:00,1551428402,14.216,11672.54,8.58,9.56,,,,,18.04,185.44,45.599,0.63868,1.139,1.8224,0.05165,0.1033
2019-03-01 08:40:00+00:00,1551429602,14.183,11808.35,8.69,9.67,,,,,17.7,181.91,34.628,0.48507,1.142,1.8272,0.107,0.214
2019-03-01 09:00:00+00:00,1551430802,14.16,11643.42,8.57,9.54,,,,,17.71,181.79,36.288,0.50827,1.143,1.8288,0.0933,0.1866
2019-03-01 09:20:00+00:00,1551432001,14.056,11530.73,8.5,9.48,,,,,17.7,181.23,28.04,0.39273,1.145,1.832,0.1125,0.225
2019-03-01 09:40:00+00:00,1551433201,14.118,11423.06,8.4,9.37,,,,,17.49,179.16,28.602,0.40064,1.147,1.8352,0.0312,0.0624
2019-03-01 10:00:00+00:00,1551434401,14.016,11394.82,8.4,9.37,,,,,17.69,180.86,27.664,0.38748,1.148,1.8368,0.1145,0.229
2019-03-01 10:20:00+00:00,1551435601,13.944,11511.52,8.51,9.49,,,,,17.02,173.8,26.555,0.37193,1.149,1.8384,0.07725,0.1545
2019-03-01 10:40:00+00:00,1551436801,14.38,11774.41,8.62,9.6,,,,,17.4,179.56,27.026,0.37854,1.151,1.8416,0.1061,0.2122
2019-03-01 11:00:00+00:00,1551438001,14.356,11901.76,8.73,9.71,,,,,16.75,172.81,26.971,0.37779,1.154,1.8464,0.1326,0.2652
2019-03-01 11:20:00+00:00,1551439202,14.089,11495.62,8.46,9.44,,,,,16.52,169.17,30.122,0.4219,1.1575,1.852,0.1461,0.2922
2019-03-01 11:40:00+00:00,1551440402,13.853,12984.33,9.71,10.72,,,,,15.63,160.49,26.074,0.36522,1.158,1.8528,0.1033,0.2066
2019-03-01 12:00:00+00:00,1551441602,13.69,12025.9,8.98,9.97,,,,,16.26,165.69,25.727,0.36033,1.159,1.8544,0.1192,0.2384
2019-03-01 12:20:00+00:00,1551442801,13.682,12553.27,9.41,10.41,,,,,15.88,162.15,26.324,0.36871,1.1615,1.8584,0.1607,0.3214
2019-03-01 12:40:00+00:00,1551444001,14.01,16148,12.26,13.28,,,,,15.08,157.83,21.368,0.2993,1.163,1.8608,0.1688,0.3376
2019-03-01 13:00:00+00:00,1551445201,13.116,14356.25,11.04,12.07,,,,,14.73,150.12,24.986,0.34995,1.167,1.8672,0.1694,0.3388
2019-03-01 13:20:00+00:00,1551446402,13.734,15541.85,11.84,12.87,,,,,14.56,151.13,21.663,0.30344,1.1695,1.8712,0.14855,0.2971
2019-03-01 13:40:00+00:00,1551447602,14.037,15950.42,12.08,13.11,,,,,14.3,149.62,21.783,0.3051,1.171,1.8736,0.1612,0.3224
2019-03-01 14:00:00+00:00,1551448802,14.073,16942.97,12.89,13.92,,,,,13.76,144.83,32.858,0.46022,1.172,1.8752,0.1525,0.305
2019-03-01 14:20:00+00:00,1551450002,14.07,17279.2,13.17,14.19,,,,,14.91,157.19,31.149,0.43629,1.173,1.8768,0.13035,0.2607
2019-03-01 14:40:00+00:00,1551451202,14.097,16564.16,12.57,13.6,,,,,14.35,150.84,41.609,0.58283,1.178,1.8848,0.1925,0.385
2019-03-01 15:00:00+00:00,1551452402,13.046,16763.15,13.09,14.12,,,,,13.28,136.91,59.972,0.84001,1.179,1.8864,0.1142,0.2284
2019-03-01 15:20:00+00:00,1551453602,12.345,15135.77,11.93,12.97,,,,,13.29,133.91,47.034,0.65878,1.1805,1.8888,0.175,0.35
2019-03-01 15:40:00+00:00,1551454802,12.679,15671.02,12.28,13.32,,,,,13.85,140.88,44.638,0.62525,1.181,1.8896,0.2001,0.4002
2019-03-01 16:00:00+00:00,1551456001,12.418,12917.46,10.03,11.05,,,,,14.5,144.57,62.217,0.87146,1.181,1.8896,0.193,0.386
2019-03-01 16:20:00+00:00,1551457201,11.841,9932.04,7.67,8.62,,,,,15.87,153.97,76.932,1.07755,1.091,1.7456,0.1521,0.3042
2019-03-01 16:40:00+00:00,1551458401,12.252,8793.26,6.65,7.56,,,,,17.17,167.09,102.162,1.43096,1.014,1.6224,0.183,0.366
2019-03-01 17:00:00+00:00,1551459601,12.6,12223.66,9.4,10.41,,,,,17.54,174.99,104.202,1.45953,0.994,1.5904,0.1464,0.2928
2019-03-01 17:20:00+00:00,1551460801,12.377,10930.91,8.38,9.36,,,,,18.42,181.64,93.171,1.30501,1.0875,1.74,0.15885,0.3177
2019-03-01 17:40:00+00:00,1551462001,12.996,13291.42,10.19,11.21,,,,,19.05,192.67,87.806,1.22987,1.192,1.9072,0.0974,0.1948
2019-03-01 18:00:00+00:00,1551463201,13.135,10993.37,8.27,9.24,,,,,20.77,208.12,84.616,1.18519,0.979,1.5664,0.1323,0.2646
2019-03-01 18:20:00+00:00,1551464401,12.965,11463.7,8.69,9.68,,,,,21.25,212.78,79.694,1.11626,0.983,1.5728,0.1388,0.2776
2019-03-01 18:40:00+00:00,1551465601,13.027,10317.38,7.74,8.69,,,,,21.78,217,77.812,1.0899,0.963,1.5408,0.1098,0.2196
2019-03-01 19:00:00+00:00,1551466801,13.419,10037.68,7.44,8.38,,,,,22.69,227.69,72.995,1.0224,1.195,1.912,0.0398,0.0796
2019-03-01 19:20:00+00:00,1551468001,13.58,8688.01,6.34,7.22,,,,,24.02,240.21,70.216,0.9835,1.0675,1.708,-0.20355,-0.4071
2019-03-01 19:40:00+00:00,1551469201,14.179,9226.91,6.66,7.56,,,,,25.13,255.07,69.366,0.97158,1.173,1.8768,-0.7612,-1.5224
2019-03-01 20:00:00+00:00,1551470401,14.538,11090.57,8.05,9.01,,,,,24.31,250.82,65.718,0.92051,1.148,1.8368,-1.0046,-2.0092
2019-03-01 20:20:00+00:00,1551471601,14.915,13582.47,9.93,10.94,,,,,25.15,264.61,62.741,0.87879,1.1335,1.8136,-1.0908,-2.1816
2019-03-01 20:40:00+00:00,1551472801,14.705,13623.51,10.01,11.02,,,,,24.65,258.32,62.531,0.87584,1.121,1.7936,-1.0799,-2.1598
2019-03-01 21:00:00+00:00,1551474001,14.739,13302.93,9.75,10.75,,,,,24.46,256.11,61.049,0.8551,1.113,1.7808,-1.0736,-2.1472
2019-03-01 21:20:00+00:00,1551475201,15.077,12673.69,9.17,10.16,,,,,25.46,267.53,60.442,0.84658,1.1035,1.7656,-1.0607,-2.1214
2019-03-01 21:40:00+00:00,1551476401,15.222,12524.08,9.02,10.01,,,,,25.81,271.78,59.161,0.82865,1.091,1.7456,-0.9906,-1.9812
2019-03-01 22:00:00+00:00,1551477601,15.364,14548.95,10.57,11.59,,,,,25.66,273.58,57.697,0.80815,1.085,1.736,-0.962,-1.924
2019-03-01 22:20:00+00:00,1551478801,15.477,15067.64,10.95,11.97,,,,,25.82,276.59,56.712,0.79434,1.073,1.7168,-0.96145,-1.9229
2019-03-01 22:40:00+00:00,1551480001,15.693,14773.36,10.66,11.68,,,,,25.93,278.45,59.682,0.83594,1.065,1.704,-0.9901,-1.9802
2019-03-01 23:00:00+00:00,1551481201,15.886,14590.95,10.47,11.48,,,,,26.57,286.25,61.973,0.86807,1.056,1.6896,-0.8923,-1.7846
2019-03-01 23:20:00+00:00,1551482401,16.065,13826.72,9.83,10.84,,,,,27.08,291.56,64.514,0.90362,1.048,1.6768,-0.9192,-1.8384
2019-03-01 23:40:00+00:00,1551483601,16.106,13503.57,9.57,10.57,,,,,27.51,296.03,68.843,0.96427,1.041,1.6656,-0.8211,-1.6422
2019-03-02 00:00:00+00:00,1551484801,16.16,12693.23,8.94,9.93,,,,,28.11,301.7,75.421,1.05639,1.044,1.6704,-0.6507,-1.3014
2019-03-02 00:20:00+00:00,1551486001,,,,,,,,,,,87.32,1.22303,1.0645,1.7032,-0.0661,-0.1322
2019-03-02 00:40:00+00:00,1551487201,,,,,,,,,,,74.88,1.0488,1.057,1.6912,0.0318,0.0636
2019-03-02 01:00:00+00:00,1551488401,,,,,,,,,,,74.143,1.03851,1.063,1.7008,-0.0128,-0.0256
2019-03-02 01:20:00+00:00,1551489601,15.8,12719.77,9.04,10.03,,,,,27.3,291.02,73.597,1.03084,1.066,1.7056,0.07305,0.1461
2019-03-02 01:40:00+00:00,1551490800,15.734,13003.98,9.28,10.27,,,,,26.01,277.29,73.887,1.0349,1.067,1.7072,0.0257,0.0514
2019-03-02 02:00:00+00:00,1551492001,15.726,12618.27,8.98,9.97,,,,,25.12,267.22,73.943,1.03572,1.075,1.72,0.0681,0.1362
2019-03-02 02:20:00+00:00,1551493201,15.608,13188.14,9.45,10.45,,,,,25.65,273.02,72.808,1.0198,1.075,1.72,0.0648,0.1296
2019-03-02 02:40:00+00:00,1551494401,15.305,13008.4,9.38,10.38,,,,,24.45,258.49,72.582,1.01664,1.076,1.7216,0.1541,0.3082
2019-03-02 03:00:00+00:00,1551495601,15.295,13072.95,9.43,10.43,,,,,24.5,258.96,72.654,1.01765,1.076,1.7216,0.146,0.292
2019-03-02 03:20:00+00:00,1551496801,15.376,12957.62,9.32,10.32,,,,,24.03,254.35,71.341,0.99927,1.0825,1.732,0.1037,0.2074
2019-03-02 03:40:00+00:00,1551498001,15.404,12897.94,9.27,10.27,,,,,23.9,253.03,71.087,0.99568,1.084,1.7344,0.1275,0.255
2019-03-02 04:00:00+00:00,1551499201,15.345,12843.17,9.24,10.24,,,,,24.37,257.62,69.744,0.97687,1.087,1.7392,0.1475,0.295
2019-03-02 04:20:00+00:00,1551500401,,,,,,,,,,,70.564,0.98836,1.0895,1.7432,0.07315,0.1463
2019-03-02 04:40:00+00:00,1551501601,15.229,12947.75,9.35,10.35,,,,,23.97,252.97,69.641,0.97546,1.09,1.744,0.1447,0.2894
2019-03-02 05:00:00+00:00,1551502801,14.832,12590.27,9.16,10.16,,,,,23.91,249.95,69.077,0.96753,1.09,1.744,0.0888,0.1776
2019-03-02 05:20:00+00:00,1551504001,14.569,12157.28,8.88,9.87,,,,,23.15,240.24,69.404,0.97212,1.0925,1.748,0.1343,0.2686
2019-03-02 05:40:00+00:00,1551505201,14.677,12572.11,9.18,10.18,,,,,22.96,239.18,70.166,0.9828,1.096,1.7536,0.1571,0.3142
2019-03-02 06:00:00+00:00,1551506401,14.739,12662.32,9.24,10.24,,,,,22.9,239.01,68.668,0.96183,1.099,1.7584,0.0663,0.1326
2019-03-02 06:20:00+00:00,1551507601,14.757,12216.01,8.89,9.87,,,,,23.28,242.51,67.079,0.93957,1.1,1.76,0.16765,0.3353
2019-03-02 06:40:00+00:00,1551508802,,,,,,,,,,,69.879,0.97878,1.101,1.7616,0.0814,0.1628
2019-03-02 07:00:00+00:00,1551510002,,,,,,,,,,,81.779,1.14548,1.102,1.7632,0.0981,0.1962
2019-03-02 07:20:00+00:00,1551511201,15.044,9669.55,6.85,7.76,,,,,24.16,250.17,81.012,1.13472,1.106,1.7696,0.04325,0.0865
2019-03-02 07:40:00+00:00,1551512402,14.919,8066.29,5.66,6.49,,,,,24.53,251.41,80.779,1.13146,1.12,1.792,0.0473,0.0946
2019-03-02 08:00:00+00:00,1551513602,15.179,17359.15,12.87,13.89,,,,,16.22,174.74,79.622,1.11522,1.109,1.7744,0.3096,0.6192
2019-03-02 08:20:00+00:00,1551514802,14.577,8436.79,5.99,6.85,,,,,21.95,223.77,81.196,1.13731,1.114,1.7824,0.02935,0.0587
2019-03-02 08:40:00+00:00,1551516002,14.542,8232.27,5.84,6.69,,,,,21.76,221.44,79.525,1.11388,1.118,1.7888,0.0945,0.189
2019-03-02 09:00:00+00:00,1551517202,14.44,8662.76,6.18,7.05,,,,,21.52,219.06,77.999,1.09251,1.12,1.792,0.0135,0.027
2019-03-02 09:20:00+00:00,1551518401,14.529,7583.9,5.35,6.16,,,,,21.81,221.28,78.926,1.10552,1.1235,1.7976,0.0738,0.1476
2019-03-02 09:40:00+00:00,1551519601,14.03,12140.45,8.99,9.98,,,,,18.62,191.13,62.806,0.87968,1.124,1.7984,-0.0747,-0.1494
2019-03-02 10:00:00+00:00,1551520801,14.39,8150.1,5.8,6.64,,,,,20.45,207.39,77.506,1.0856,1.133,1.8128,0.1181,0.2362
2019-03-02 10:20:00+00:00,1551522001,14.048,11495.79,8.47,9.45,,,,,18.02,184.4,62.813,0.87979,1.1275,1.804,0.079,0.158
2019-03-02 10:40:00+00:00,1551523201,14.299,7781.74,5.53,6.36,,,,,18.83,190.3,83.34,1.16732,1.132,1.8112,0.1556,0.3112
2019-03-02 11:00:00+00:00,1551524401,14.154,7675.18,5.47,6.29,,,,,17.62,177.44,80.424,1.12648,1.133,1.8128,0.0804,0.1608
2019-03-02 11:20:00+00:00,1551525601,14.218,8007.78,5.72,6.56,,,,,18.51,186.91,79.61,1.11509,1.1345,1.8152,0.1397,0.2794
2019-03-02 11:40:00+00:00,1551526801,14.153,8310.07,5.96,6.81,,,,,17.18,173.54,84.073,1.17761,1.135,1.816,0.1629,0.3258
2019-03-02 12:00:00+00:00,1551528001,13.818,9260.46,6.75,7.65,,,,,15.61,157.35,75.334,1.05519,1.139,1.8224,0.1514,0.3028
2019-03-02 12:20:00+00:00,1551529201,14.091,7218.73,5.13,5.93,,,,,16.43,164.86,81.153,1.13669,1.1505,1.8408,0.1322,0.2644
2019-03-02 12:40:00+00:00,1551530401,13.578,10792.15,8.01,8.97,,,,,15.94,161.07,57.978,0.81208,1.147,1.8352,0.1872,0.3744
2019-03-02 13:00:00+00:00,1551531601,13.788,8918.21,6.49,7.38,,,,,15.38,154.6,70.296,0.9846,1.154,1.8464,0.1082,0.2164
2019-03-02 13:20:00+00:00,1551532801,13.871,7320.91,5.24,6.04,,,,,14.95,149.37,78.67,1.10192,1.1635,1.8616,0.0739,0.1478
2019-03-02 13:40:00+00:00,1551534001,14.188,19240.63,14.76,15.76,,,,,12.88,137.46,73.7,1.03227,0.854,1.3664,0.0777,0.1554
2019-03-02 14:00:00+00:00,1551535201,13.942,16870.02,12.87,13.9,,,,,11.92,125.07,72.258,1.0121,0.868,1.3888,0.2437,0.4874
2019-03-02 14:20:00+00:00,1551536401,13.688,17439.59,13.44,14.46,,,,,11.2,117.24,67.937,0.95161,1.173,1.8768,0.28055,0.5611
2019-03-02 14:40:00+00:00,1551537601,13.671,17705.57,13.66,14.69,,,,,10.95,114.76,72.478,1.0152,0.896,1.4336,0.1179,0.2358
2019-03-02 15:00:00+00:00,1551538801,13.608,20022.93,15.65,16.63,,,,,10.87,115.23,62.345,0.87324,1.184,1.8944,0.3404,0.6808
2019-03-02 15:20:00+00:00,1551540001,13.571,19824.12,15.5,16.48,,,,,10.31,109.07,61.066,0.8553,1.0005,1.6008,0.1226,0.2452
2019-03-02 15:40:00+00:00,1551541201,13.663,11416.1,8.49,9.47,,,,,10.78,109.44,73.357,1.02748,1.193,1.9088,0.3142,0.6284
2019-03-02 16:00:00+00:00,1551542401,13.578,18116.93,14.04,15.06,,,,,9.85,103.31,61.702,0.86423,1.191,1.9056,0.0415,0.083
2019-03-02 16:20:00+00:00,1551543601,13.642,17924.71,13.86,14.88,,,,,10,104.94,60.296,0.84452,1.1935,1.9096,0.20595,0.4119
2019-03-02 16:40:00+00:00,1551544801,13.675,18769,14.56,15.57,,,,,10.8,113.88,58.57,0.82038,1.194,1.9104,0.1229,0.2458
2019-03-02 17:00:00+00:00,1551546001,13.766,18741.24,14.5,15.51,,,,,10.74,113.46,59.57,0.83436,1.193,1.9088,0.2113,0.4226
2019-03-02 17:20:00+00:00,1551547201,13.89,17816.26,13.68,14.7,,,,,12.17,128.23,57.216,0.8014,1.194,1.9104,0.21685,0.4337
2019-03-02 17:40:00+00:00,1551548401,14.059,17088.94,13.02,14.04,,,,,12.41,130.66,55.267,0.77412,1.195,1.912,0.1339,0.2678
2019-03-02 18:00:00+00:00,1551549601,14.23,11665.09,8.57,9.55,,,,,15.14,155.62,56.432,0.69181,1.194,1.9104,0.2078,0.4156
2019-03-02 18:20:00+00:00,1551550801,14.443,15871.54,11.89,12.92,,,,,15.51,163.47,53.635,0.75126,1.1925,1.908,0.1417,0.2834
2019-03-02 18:40:00+00:00,1551552001,14.742,11797.14,8.56,9.54,,,,,15.86,164.8,62.299,0.87261,1.19,1.904,0.1117,0.2234
2019-03-02 19:00:00+00:00,1551553201,15.263,15892.87,11.67,12.69,,,,,16.56,177.34,52.37,0.73354,1.189,1.9024,0.153,0.306
2019-03-02 19:20:00+00:00,1551554401,16.032,16337.52,11.79,12.81,,,,,17.35,188.95,57.393,0.80385,1.1925,1.908,0.1093,0.2186
2019-03-02 19:40:00+00:00,1551555601,16.577,16632.75,11.86,12.88,,,,,17.76,195.63,49.334,0.691,1.192,1.9072,0.0884,0.1768
2019-03-02 20:00:00+00:00,1551556802,16.549,18315.64,13.18,14.2,,,,,16.4,182.04,48.318,0.67678,1.19,1.904,-0.2449,-0.4898
2019-03-02 20:20:00+00:00,1551558002,17.23,18375.38,13.01,14.03,,,,,15.93,179.15,51.415,0.72016,1.1875,1.9,0.1348,0.2696
2019-03-02 20:40:00+00:00,1551559201,17.21,16239.76,11.38,12.4,,,,,18.18,202.33,49.833,0.69797,1.182,1.8912,-0.6832,-1.3664
2019-03-02 21:00:00+00:00,1551560402,16.498,21752.03,15.92,16.88,,,,,17.06,192.28,48.203,0.67513,1.16,1.856,-0.8962,-1.7924
2019-03-02 21:20:00+00:00,1551561601,17.052,22922.72,16.63,17.57,,,,,17.34,198.63,43.959,0.61574,1.14,1.824,-1.11005,-2.2201
2019-03-02 21:40:00+00:00,1551562801,16.97,23270.41,16.94,17.87,,,,,17.3,198.12,54.679,0.76586,1.126,1.8016,-1.1444,-2.2888
2019-03-02 22:00:00+00:00,1551564002,17.158,22197.38,16.01,16.97,,,,,17.95,205.21,56.848,0.79626,1.116,1.7856,-1.1035,-2.207
2019-03-02 22:20:00+00:00,1551565202,17.306,21933.24,15.75,16.71,,,,,18.08,207.01,57.853,0.81036,1.1095,1.7752,-1.07095,-2.1419
2019-03-02 22:40:00+00:00,1551566402,17.587,20295.26,14.37,15.37,,,,,18.91,215.93,60.335,0.84509,1.103,1.7648,-1.0768,-2.1536
2019-03-02 23:00:00+00:00,1551567601,17.65,18025.54,12.61,13.63,,,,,19.77,223.66,61.162,0.8567,1.099,1.7584,-1.0976,-2.1952
2019-03-02 23:20:00+00:00,1551568801,17.633,16804.32,11.69,12.71,,,,,19.94,224.21,-17.258,-0.24171,1.0915,1.7464,-1.0223,-2.0446
2019-03-02 23:40:00+00:00,1551570002,17.732,16398.94,11.35,12.38,,,,,20.51,230.56,64.053,0.89716,1.082,1.7312,-0.9429,-1.8858
2019-03-03 00:00:00+00:00,1551571202,17.849,16327.51,11.27,12.29,,,,,20.6,232.04,65.815,0.92186,1.079,1.7264,-1.0069,-2.0138
2019-03-03 00:20:00+00:00,1551572401,17.821,15346.19,10.54,11.56,,,,,21.15,237.17,51.019,0.5174,1.0815,1.7304,-0.84525,-1.6905
2019-03-03 00:40:00+00:00,1551573602,17.93,15112.75,10.34,11.36,,,,,20.99,235.5,66.778,0.93534,1.105,1.768,-0.2568,-0.5136
2019-03-03 01:00:00+00:00,1551574801,17.781,15128.2,10.39,11.41,,,,,20.38,228.11,66.9,0.93706,1.104,1.7664,0.1383,0.2766
2019-03-03 01:20:00+00:00,1551576001,17.623,15787.29,10.92,11.94,,,,,20.62,230.8,65.5,0.91744,1.0895,1.7432,0.11845,0.2369
2019-03-03 01:40:00+00:00,1551577201,17.5,15896.69,11.04,12.06,,,,,20,223.48,65.473,0.91709,1.092,1.7472,0.0181,0.0362
2019-03-03 02:00:00+00:00,1551578402,17.364,15769.61,10.98,12,,,,,18.96,211.13,64.212,0.8994,1.102,1.7632,-0.1896,-0.3792
2019-03-03 02:20:00+00:00,1551579601,17.165,15512.74,10.84,11.86,,,,,18.58,205.93,64.76,0.90708,1.104,1.7664,0.0942,0.1884
2019-03-03 02:40:00+00:00,1551580801,17.002,15748.56,11.06,12.08,,,,,17.11,189.22,64.439,0.90258,1.112,1.7792,0.0302,0.0604
2019-03-03 03:00:00+00:00,1551582001,16.882,15948.5,11.25,12.27,,,,,17.47,192.96,64.602,0.90488,1.117,1.7872,0.0708,0.1416
2019-03-03 03:20:00+00:00,1551583201,16.766,16181.77,11.46,12.48,,,,,16.35,180.44,64.339,0.90118,1.124,1.7984,0.0218,0.0436
2019-03-03 03:40:00+00:00,1551584401,16.673,16436.41,11.68,12.7,,,,,15.4,169.83,63.591,0.89072,1.13,1.808,0.198,0.396
2019-03-03 04:00:00+00:00,1551585601,16.677,16721.1,11.9,12.92,,,,,17.42,192.35,62.807,0.87972,1.127,1.8032,0.1157,0.2314
2019-03-03 04:20:00+00:00,1551586802,16.497,16454.03,11.74,12.77,,,,,16.97,186.52,62.284,0.87242,1.1385,1.8216,0.10075,0.2015
2019-03-03 04:40:00+00:00,1551588002,16.519,16077.47,11.45,12.47,,,,,16.93,185.81,62.955,0.8818,1.138,1.8208,0.208,0.416
2019-03-03 05:00:00+00:00,1551589202,16.492,15941.31,11.35,12.37,,,,,17.39,190.64,62.186,0.87103,1.141,1.8256,0.1345,0.269
2019-03-03 05:20:00+00:00,1551590401,16.332,15338.89,10.93,11.95,,,,,16.67,181.73,61.619,0.86308,1.1495,1.8392,0.1364,0.2728
2019-03-03 05:40:00+00:00,1551591601,16.227,14958.93,10.66,11.68,,,,,16.41,178.16,61.659,0.86361,1.15,1.84,0.1564,0.3128
2019-03-03 06:00:00+00:00,1551592801,16.201,15011.98,10.71,11.73,,,,,14.85,161.25,,,1.155,1.848,0.0489,0.0978
2019-03-03 06:20:00+00:00,1551594001,15.995,15983.98,11.52,12.55,,,,,15.63,169.78,,,1.158,1.8528,0.1663,0.3326
2019-03-03 06:40:00+00:00,1551595201,15.946,15911.61,11.48,12.51,,,,,13.72,148.89,,,1.162,1.8592,0.0316,0.0632
2019-03-03 07:00:00+00:00,1551596401,,,,,,,,,,,59.088,0.82764,1.162,1.8592,0.0984,0.1968
2019-03-03 07:20:00+00:00,1551597601,,,,,,,,,,,58.564,0.82027,1.165,1.864,0.08715,0.1743
2019-03-03 07:40:00+00:00,1551598801,,,,,,,,,,,60.713,0.85038,1.17,1.872,0.1327,0.2654
2019-03-03 08:00:00+00:00,1551600001,,,,,,,,,,,63.797,0.89359,1.171,1.8736,0.1027,0.2054
2019-03-03 08:20:00+00:00,1551601201,,,,,,,,,,,65.243,0.91383,1.173,1.8768,0.0648,0.1296
2019-03-03 08:40:00+00:00,1551602401,15.801,12840.07,9.13,10.13,,,,,14.57,155.35,65.739,0.92079,1.175,1.88,0.1635,0.327
2019-03-03 09:00:00+00:00,1551603602,15.831,12193.86,8.63,9.61,,,,,14.54,154.67,67.008,0.93855,1.176,1.8816,0.0391,0.0782
2019-03-03 09:20:00+00:00,1551604802,15.685,12620.88,8.99,9.98,,,,,14.31,152.08,65.797,0.9216,1.1815,1.8904,0.101,0.202
2019-03-03 09:40:00+00:00,1551606002,15.597,12728.37,9.09,10.08,,,,,14.06,149.32,64.309,0.90078,1.183,1.8928,-0.0107,-0.0214
2019-03-03 10:00:00+00:00,1551607202,15.432,12677.11,9.09,10.08,,,,,13.59,143.83,63.536,0.88994,1.185,1.896,0.1183,0.2366
2019-03-03 10:20:00+00:00,1551608402,15.362,12223.54,8.76,9.74,,,,,13.11,138.26,63.361,0.8875,1.186,1.8976,0.1032,0.2064
2019-03-03 10:40:00+00:00,1551609602,15.382,12122.31,8.67,9.65,,,,,13.67,144.12,64.271,0.90023,1.187,1.8992,0.0916,0.1832
2019-03-03 11:00:00+00:00,1551610802,15.299,11860.26,8.49,9.46,,,,,13.61,143.13,63.911,0.89517,1.192,1.9072,0.1191,0.2382
2019-03-03 11:20:00+00:00,1551612002,15.31,11855.58,8.48,9.46,,,,,13.66,143.61,64.531,0.90386,1.196,1.9136,0.0253,0.0506
2019-03-03 11:40:00+00:00,1551613202,15.21,11855.78,8.5,9.48,,,,,13.22,138.71,63.12,0.88411,1.199,1.9184,0.0926,0.1852
2019-03-03 12:00:00+00:00,1551614401,15.005,11621.29,8.37,9.34,,,,,12.17,127,60.573,0.84844,1.198,1.9168,0.1251,0.2502
2019-03-03 12:20:00+00:00,1551615601,15.288,12033.49,8.63,9.6,,,,,12.12,127.44,62.911,0.88118,1.1995,1.9192,0.0772,0.1544
2019-03-03 12:40:00+00:00,1551616801,15.554,12107.97,8.63,9.6,,,,,13.12,138.8,61.416,0.86023,1.2,1.92,0.169,0.338
2019-03-03 13:00:00+00:00,1551618001,15.355,12298.62,8.82,9.8,,,,,12.21,128.75,59.768,0.83716,1.2,1.92,0.0799,0.1598
2019-03-03 13:20:00+00:00,1551619201,15.163,11784.2,8.46,9.43,,,,,12.82,134.35,59.513,0.83356,1.2005,1.9208,0.16995,0.3399
2019-03-03 13:40:00+00:00,1551620401,15.027,11867.85,8.55,9.53,,,,,12.02,125.7,61.044,0.85503,1.201,1.9216,0.2,0.4
2019-03-03 14:00:00+00:00,1551621601,14.918,11187.87,8.05,9.01,,,,,12.12,126.03,66.14,0.92642,1.201,1.9216,0.2255,0.451
2019-03-03 14:20:00+00:00,1551622801,14.747,10196.34,7.31,8.24,,,,,11.87,122.44,72.599,1.01686,1.1995,1.9192,0.25785,0.5157
2019-03-03 14:40:00+00:00,1551624001,14.831,12032.28,8.73,9.71,,,,,10.76,112.17,74.824,1.04801,1.199,1.9184,0.2196,0.4392
2019-03-03 15:00:00+00:00,1551625201,15.113,13833.38,10.07,11.08,,,,,10.84,114.59,80.801,1.13175,1.2,1.92,0.2434,0.4868
2019-03-03 15:20:00+00:00,1551626402,14.884,12861.01,9.36,10.36,,,,,11.3,118.39,53.081,0.74349,1.199,1.9184,0.1706,0.3412
2019-03-03 15:40:00+00:00,1551627602,14.796,12296.38,8.94,9.93,,,,,10.49,109.42,65.706,0.92031,1.199,1.9184,0.1597,0.3194
2019-03-03 16:00:00+00:00,1551628802,14.777,13045.83,9.54,10.54,,,,,11.64,121.81,53.403,0.748,1.199,1.9184,0.1724,0.3448
2019-03-03 16:20:00+00:00,1551630002,14.748,12874.65,9.41,10.41,,,,,13.4,140.02,56.288,0.78841,1.197,1.9152,0.0915,0.183
2019-03-03 16:40:00+00:00,1551631201,14.697,13069.16,9.57,10.58,,,,,14.95,156.2,48.408,0.67804,1.197,1.9152,0.2283,0.4566
2019-03-03 17:00:00+00:00,1551632401,14.829,13372.85,9.78,10.79,,,,,15.79,165.63,47.903,0.67096,1.198,1.9168,0.1723,0.3446